Regional Weather Roundup
Issued by NWS Newport/Morehead, NC

Current Version | Previous Version | Graphics & Text | Print | Product List | Glossary Off
Versions: 1 2 3 4 5 6 7 8 9 10 11 12 13 14 15 16 17 18 19 20 21 22 23 24 25 26 27 28 29 30 31 32 33 34 35 36 37 38 39 40 41 42 43 44 45 46 47 48 49 50

000
ASUS42 KMHX 112213
RWRMHX
WEATHER ROUNDUP FOR EASTERN NORTH CAROLINA
NATIONAL WEATHER SERVICE NEWPORT/MOREHEAD CITY NC
500 PM EST MON DEC 11 2017

NOTE: "FAIR" INDICATES FEW OR NO CLOUDS BELOW 12,000 FEET
WITH NO SIGNIFICANT WEATHER AND/OR OBSTRUCTIONS TO VISIBILITY

NCZ015>017-031-032-045>047-102-103-112300-
NORTH COAST

CITY           SKY/WX    TMP DP  RH WIND       PRES   REMARKS
EDENTON        CLEAR     47  36  64 CALM      30.05S
ELIZABETH CITY CLEAR     44  37  76 SE6       30.04F
KITTY HAWK     CLEAR     43  33  67 CALM      30.03F
MANTEO         CLEAR     43  32  65 CALM      30.05F

$$

NCZ045>047-081-094-103-104-112300-
CENTRAL COAST

CITY           SKY/WX    TMP DP  RH WIND       PRES   REMARKS
FRISCO         CLEAR     41  36  82 CALM      30.06F

$$

NCZ095-097-098-100-101-112300-
SOUTHERN COAST

CITY           SKY/WX    TMP DP  RH WIND       PRES   REMARKS
BEAUFORT       CLEAR     48  33  56 S3        30.05S
CEDAR ISLAND   NOT AVBL
JACKSONVILLE   CLEAR     48  33  56 S3        30.03F
PINEY ISLAND     N/A    N/A N/A N/A E6        30.05S
WILMINGTON     CLEAR     49  26  41 SE5       30.04F


$$

NCZ011>013-027>030-043-044-078>080-089-090>093-098-112300-
COASTAL PLAIN

CITY           SKY/WX    TMP DP  RH WIND       PRES   REMARKS
AHOSKIE        CLEAR     45  31  58 CALM      30.03F
CLINTON        CLEAR     50  31  48 CALM      30.03F
ELIZABETHTOWN  NOT AVBL
GOLDSBORO      CLEAR     49  30  47 CALM      30.01F
GREENVILLE     CLEAR     48  32  53 SW3       30.05F
HAVELOCK       CLEAR     48  32  53 S6        30.05F
KENANSVILLE    CLEAR     48  30  49 CALM      30.04F
KINSTON        CLEAR     46  34  61 CALM      30.04F
NEW BERN       CLEAR     45  37  73 CALM      30.05F
RICHLANDS      CLEAR     45  35  68 CALM      30.04F
ROCKY MOUNT    CLEAR     46  34  62 S5        30.01F
WASHINGTON     CLEAR     49  32  50 CALM      30.05R
WHITEVILLE     CLEAR     51  32  48 CALM      30.03F

$$

AMZ130-135-150-152-154-156-158-170-250-252-270-ANZ085-086-088-633-658-670-112300-
MARINE OBSERVATIONS

STATION/POSITION TIME  TEMP    WIND        PRES    WAVE   SWELL
                       AIR SEA DIR/SP/G            HT/PER HT/PER
                 (UTC) (F)     (DEG/KT/KT) (MB)    (FT/S) (FT/S)
CHESAPEAKE LIGHT NOT AVBL
64 E VA BEACH    2150   48 60  260/  2/  4 1017.8    3/ 9   2/ 9
DUCK             2148   47 55  140/  5/  7 1016.8
2 E DUCK         2200      54                N/A     1/ 9
OREGON INLET     2148           90/  2/  3 1017.5
13E OREGON INLT  2148      57                N/A     2/ 9   2/ 9
HATTERAS CG      2148   48 51  240/  2/  2 1017.7
DIAMOND BUOY     2150   52     320/  4/  8 1017.9    4/ 6   3/ 6
CAPE LOOKOUT     2200          190/  3/  4 1017.8
BEAUFORT LAB     2148   50 52  180/  3/  4 1017.4
30 SE NEW RVR IN 2108   53 69  320/  2/  4 1017.9
30 SE NEW RVR IN 2200      68                N/A     3/ 8
27 SE WRIGHTSVLE 2108   52 66  240/  4/  8 1018.2
5 SE WRIGHTSVLE  2108   52 58  160/  2/  4 1017.7
225 S CAPE HAT   2150   66 76  280/ 10/ 16 1018.0    4/ 9   3/ 9
41 SE CHARLESTON 2150      74  270/ 12/ 16 1017.7    3/ 5   2/ 9

$$




USA.gov is the U.S. government's official web portal to all federal, state and local government web resources and services.